Location: Muenchen
(48.1800°N, 11.5800°E)
Time: 14:27:21
(UTC+02:00)

ISS - Visible Passes

Search period start: 02 October 2014 00:00
Search period end: 12 October 2014 00:00
Orbit: 413 x 416 km, 51.6° (Epoch: 02 October)

Date Brightness Start Highest point End Pass type
(mag) Time Alt. Az. Time Alt. Az. Time Alt. Az.
07 Oct -1.7 20:24:22 10° SSW 20:26:14 24° S 20:26:14 24° S visible
08 Oct -1.6 19:35:45 10° S 19:38:10 19° SE 19:39:21 16° ESE visible
08 Oct -0.8 21:11:10 10° WSW 21:12:13 19° WSW 21:12:13 19° WSW visible
09 Oct -3.3 20:21:55 10° SW 20:25:10 61° SSE 20:25:10 61° SSE visible
10 Oct -2.7 19:32:48 10° SW 19:35:56 40° SSE 19:37:59 18° E visible
10 Oct -1.0 21:09:16 10° W 21:10:50 25° W 21:10:50 25° W visible
11 Oct -3.3 20:19:49 10° WSW 20:23:09 74° NNW 20:23:32 63° NE visible
